Location: Home
(42.5358°N, 72.7383°W)
Time: 01:29:32
(UTC-04:00)

DELTA 1 DEB - Pass Details

Date: 03 July 2022
Orbit: 600 x 774 km, 98.5° (Epoch: 16 August)

Event Time Altitude Azimuth Distance (km) Brightness Sun altitude
Exits shadow 00:11:51 12° 246° (WSW) 2,132 ? -23.7°
Maximum altitude 00:13:41 15° 269° (W) 1,985 ? -23.8°
Drops below altitude 10° 00:16:24 10° 302° (WNW) 2,267 ? -23.9°
Sets 00:19:45 0° 327° (NNW) 3,164 ? -24.0°
